[[{"header":{"parameterUnit":"m.s-1","parameterCategory":1,"la1":30.2991,"la2":30.254,"lo1":-89.0895,"lo2":-89.0444,"dy":0.0017,"dx":0.0017,"nx":28,"ny":28,"refTime":"2024-07-26T03:00:00:Z","depth":0,"parameterNumber":2,"parameterNumberName":"U-component_of_WINDS"},"data":[0,0,0,0,0,0,0,0,0,0,0,0,0,0,0,0,0,0,0,0,0,0,0,0,0,0,0,0,0,0,0,0,0,0,0,0,0,0,0,0,0,0,0,0,0,0,0,0,0,0,0,0,0,0,0,0,0,0,-1.5787,-1.5787,0,-1.5774,-1.5774,-1.5774,-1.5719,-1.5718,-1.5717,-1.5716,-1.5703,-1.5704,-1.5705,0,0,0,0,0,0,0,0,0,0,0,0,0,-1.5766,-1.5766,-1.5787,-1.5787,-1.5787,-1.5774,-1.5774,-1.5774,-1.572,-1.5718,-1.5717,-1.5715,-1.5703,-1.5704,-1.5705,0,0,0,0,0,0,0,0,0,0,0,0,0,-1.5766,-1.5766,-1.5787,-1.5758,-1.5755,-1.5774,-1.5774,-1.5774,-1.572,-1.5718,-1.5716,-1.5714,-1.5702,-1.5704,-1.5705,-1.5751,0,0,-1.5709,-1.5709,0,0,0,0,0,0,0,0,-1.5766,-1.5767,-1.5763,-1.576,-1.5757,-1.5746,-1.5762,-1.5766,-1.572,-1.5733,-1.5716,-1.5713,-1.5719,-1.5719,-1.5721,-1.575,-1.5749,-1.5709,-1.571,-1.571,-1.571,0,0,0,0,0,0,0,-1.5766,-1.5767,-1.5782,-1.5763,-1.5759,-1.5746,-1.5744,-1.5762,-1.5737,-1.5732,-1.5728,-1.5727,-1.5717,-1.5719,-1.572,-1.5749,-1.5709,-1.571,-1.5711,-1.5711,-1.5816,-1.5818,0,0,0,0,0,0,-1.577,-1.5767,-1.5782,-1.5782,-1.5757,-1.5748,-1.5746,-1.5752,-1.5737,-1.5733,-1.5729,-1.5725,-1.5718,-1.5718,-1.5719,-1.5772,-1.571,-1.5711,-1.5712,-1.5814,-1.5816,-1.5819,0,0,0,0,0,0,-1.577,-1.5772,-1.5783,-1.5773,-1.5774,-1.575,-1.5758,-1.5753,-1.5755,-1.5734,-1.573,-1.5736,-1.5717,-1.5717,-1.5743,-1.577,-1.5712,-1.5713,-1.5812,-1.5815,-1.5818,-1.5877,0,0,0,0,0,0,-1.5769,-1.5772,-1.5789,-1.5774,-1.5775,-1.5807,-1.5759,-1.5754,-1.5757,-1.5751,-1.574,-1.5736,-1.5715,-1.5742,-1.5745,-1.5771,-1.5714,-1.5809,-1.5813,-1.5817,-1.5873,-1.5882,-1.589,0,0,0,0,0,-1.5769,-1.5806,-1.579,-1.5792,-1.5795,-1.5809,-1.5809,-1.5784,-1.5759,-1.5776,-1.5763,-1.5736,-1.5767,-1.5745,-1.5747,-1.5775,-1.5807,-1.5812,-1.5816,-1.5869,-1.588,-1.5889,0,0,0,0,0,0,-1.5825,-1.5804,-1.5786,-1.5819,-1.5816,-1.5799,-1.582,-1.5797,-1.5801,-1.5796,-1.5765,-1.5763,-1.5794,-1.5787,-1.5762,-1.5819,-1.5783,-1.5788,-1.5822,-1.5832,-1.5841,-1.5841,-1.5715,0,0,0,0,0,-1.5841,-1.5854,-1.5835,-1.5866,-1.5866,-1.5843,-1.5848,-1.583,-1.5825,-1.5824,-1.5813,-1.581,-1.5819,-1.5825,-1.5832,-1.5872,-1.5868,-1.5892,-1.5901,-1.5908,-1.5912,-1.5933,-1.5943,-1.5834,-1.5834,-1.5833,0,0,-1.5874,-1.5865,-1.5874,-1.5877,-1.5873,-1.5886,-1.5842,-1.5859,-1.5869,-1.5826,-1.585,-1.5842,-1.5836,-1.5869,-1.5883,-1.5865,-1.5942,-1.5914,-1.5919,-1.592,-1.5939,-1.5949,-1.5958,-1.5837,-1.5836,-1.5836,0,0,-1.5943,-1.5937,-1.5962,-1.5959,-1.5952,-1.5937,-1.5944,-1.5931,-1.5924,-1.5947,-1.5915,-1.5927,-1.5944,-1.5941,-1.5942,-1.6011,-1.5986,-1.6014,-1.6058,-1.6079,-1.6087,-1.6095,-1.6119,-1.6128,-1.6019,-1.6019,-1.6019,0,-1.5985,-1.6004,-1.5978,-1.5997,-1.5999,-1.5962,-1.5988,-1.5986,-1.5982,-1.5985,-1.5964,-1.5984,-1.5978,-1.601,-1.6027,-1.6029,-1.6035,-1.6015,-1.6088,-1.6095,-1.6102,-1.6125,-1.6134,-1.6022,-1.6022,-1.6022,-1.6021,0,-1.6057,-1.6071,-1.6093,-1.609,-1.6095,-1.6117,-1.6095,-1.6103,-1.6085,-1.6072,-1.6097,-1.6088,-1.6093,-1.61,-1.6082,-1.6129,-1.6118,-1.6094,-1.6056,-1.6116,-1.6137,-1.6146,-1.6027,-1.6026,-1.6025,-1.6024,0,0,-1.6158,-1.6142,-1.615,-1.6149,-1.614,-1.615,-1.6172,-1.6176,-1.6184,-1.6183,-1.62,-1.6215,-1.6193,-1.6194,-1.6176,-1.6194,-1.6249,-1.6167,-1.6166,-1.6182,-1.63,-1.6318,-1.6329,-1.6233,-1.6234,-1.6236,-1.6301,0,-1.6223,-1.6257,-1.6235,-1.6273,-1.6286,-1.6251,-1.6269,-1.6266,-1.6256,-1.6265,-1.6253,-1.6264,-1.6234,-1.6234,-1.6251,-1.6239,-1.6272,-1.6234,-1.6248,-1.6249,-1.6249,-1.634,-1.6359,-1.6421,-1.6309,-1.631,-1.6311,0,-1.6302,-1.6305,-1.6345,-1.6334,-1.6338,-1.6355,-1.6358,-1.6368,-1.6364,-1.6355,-1.6357,-1.6334,-1.6354,-1.6319,-1.6346,-1.6321,-1.6326,-1.6321,-1.6323,-1.6322,-1.6283,-1.6341,-1.644,-1.6449,-1.6324,-1.6323,-1.6322,0,-1.6372,-1.6386,-1.6411,-1.6411,-1.6399,-1.6412,-1.6407,-1.6401,-1.6406,-1.6409,-1.6412,-1.6417,-1.642,-1.6425,-1.6405,-1.6381,-1.6435,-1.6398,-1.6428,-1.6429,-1.644,-1.6439,-1.654,-1.6445,-1.6444,-1.6444,-1.6444,0,-1.6445,-1.6471,-1.6442,-1.6458,-1.6485,-1.646,-1.6488,-1.648,-1.6476,-1.6489,-1.646,-1.6474,-1.6446,-1.6457,-1.6442,-1.6467,-1.6469,-1.6462,-1.6457,-1.6464,-1.6465,-1.6466,-1.6461,-1.6447,-1.6446,-1.6446,-1.6445,0,-1.6527,-1.6509,-1.6534,-1.6521,-1.6519,-1.654,-1.6528,-1.6542,-1.653,-1.6548,-1.6551,-1.6532,-1.6543,-1.6524,-1.6533,-1.6522,-1.6557,-1.6546,-1.6559,-1.6555,-1.6586,-1.6583,-1.669,-1.6703,-1.66,-1.6601,-1.6602,0,-1.6575,-1.6593,-1.6583,-1.659,-1.6587,-1.6599,-1.6604,-1.658,-1.6586,-1.6584,-1.6598,-1.6607,-1.6613,-1.6633,-1.662,-1.6627,-1.6616,-1.6653,-1.6616,-1.6623,-1.6616,-1.6614,-1.6616,-1.666,-1.6661,-1.6662,-1.6663,0,-1.6661,-1.6652,-1.6659,-1.6665,-1.6671,-1.6674,-1.6675,-1.6683,-1.6658,-1.6666,-1.6678,-1.6682,-1.6692,-1.6701,-1.6705,-1.6701,-1.6678,-1.6675,-1.6682,-1.6688,-1.6694,-1.6691,-1.6578,-1.6672,-1.6671,-1.667,-1.667,-1.667,-1.6727,-1.6742,-1.6737,-1.6747,-1.6745,-1.6747,-1.676,-1.6749,-1.6759,-1.6764,-1.675,-1.6765,-1.6761,-1.6764,-1.6763,-1.6774,-1.6758,-1.6768,-1.6771,-1.6774,-1.6778,-1.6694,-1.6775,-1.6775,-1.6774,-1.6774,-1.6774,0,-1.6811,-1.6807,-1.6816,-1.6818,-1.6827,-1.6805,-1.6805,-1.6813,-1.6827,-1.6825,-1.6832,-1.6845,-1.6855,-1.6843,-1.685,-1.6862,-1.6851,-1.6864,-1.6863,-1.6862,-1.6793,-1.6786,-1.6873,-1.6873,-1.6872,-1.6872,-1.6872,-1.6872,-1.6856,-1.6881,-1.6871,-1.6895,-1.689,-1.6904,-1.6906,-1.6908,-1.6906,-1.6923,-1.693,-1.6923,-1.6917,-1.6924,-1.6932,-1.6928,-1.6932,-1.6949,-1.6941,-1.6877,-1.6867,-1.6858,-1.6851,-1.695,-1.695,-1.7009,-1.701,-1.7011]},{"header":{"parameterUnit":"m.s-1","parameterCategory":1,"la1":30.2991,"la2":30.254,"lo1":-89.0895,"lo2":-89.0444,"dy":0.0017,"dx":0.0017,"nx":28,"ny":28,"refTime":"2024-07-26T03:00:00:Z","depth":0,"parameterNumber":3,"parameterNumberName":"V-component_of_WINDS"},"data":[0,0,0,0,0,0,0,0,0,0,0,0,0,0,0,0,0,0,0,0,0,0,0,0,0,0,0,0,0,0,0,0,0,0,0,0,0,0,0,0,0,0,0,0,0,0,0,0,0,0,0,0,0,0,0,0,0,0,0.4471,0.447,0,0.4355,0.4354,0.4352,0.4229,0.4227,0.4225,0.4224,0.4106,0.4104,0.4103,0,0,0,0,0,0,0,0,0,0,0,0,0,0.4587,0.4585,0.4471,0.447,0.4468,0.4355,0.4354,0.4352,0.4229,0.4227,0.4225,0.4223,0.4106,0.4104,0.4103,0,0,0,0,0,0,0,0,0,0,0,0,0,0.451,0.4585,0.4471,0.4393,0.4385,0.4355,0.4353,0.4351,0.4229,0.4227,0.4224,0.4222,0.4107,0.4105,0.4102,0.4141,0,0,0.4095,0.4094,0,0,0,0,0,0,0,0,0.4515,0.4506,0.4406,0.4398,0.4389,0.4304,0.4351,0.4281,0.423,0.4289,0.4223,0.422,0.4174,0.4166,0.415,0.4135,0.413,0.4095,0.4094,0.4093,0.4092,0,0,0,0,0,0,0,0.452,0.451,0.4425,0.4405,0.4395,0.4364,0.435,0.4337,0.4247,0.4283,0.4274,0.4262,0.4169,0.4152,0.4146,0.4128,0.4095,0.4093,0.4092,0.4091,0.4139,0.4142,0,0,0,0,0,0,0.4537,0.4516,0.4429,0.4422,0.4447,0.4364,0.4349,0.4334,0.4247,0.4231,0.4264,0.4257,0.4157,0.4149,0.4141,0.4181,0.4093,0.4091,0.4089,0.4137,0.414,0.4143,0,0,0,0,0,0,0.454,0.4531,0.4433,0.4466,0.4451,0.4365,0.4349,0.4333,0.4316,0.4233,0.4216,0.4264,0.4155,0.4145,0.4142,0.4175,0.409,0.4088,0.4134,0.4138,0.4141,0.426,0,0,0,0,0,0,0.4544,0.4532,0.4546,0.4467,0.445,0.4436,0.4351,0.4332,0.4313,0.4301,0.4228,0.4213,0.4152,0.4146,0.4139,0.417,0.4086,0.413,0.4135,0.414,0.4253,0.4267,0.428,0,0,0,0,0,0.4549,0.4584,0.4547,0.4538,0.4465,0.4438,0.4428,0.4357,0.4316,0.4329,0.4275,0.4216,0.4172,0.4147,0.4138,0.4169,0.4128,0.4134,0.414,0.4246,0.4264,0.428,0,0,0,0,0,0,0.467,0.4573,0.4531,0.4542,0.4499,0.4417,0.4431,0.4378,0.4346,0.4337,0.425,0.4235,0.4242,0.4205,0.4178,0.4201,0.4142,0.4146,0.4226,0.4242,0.4255,0.4264,0.4084,0,0,0,0,0,0.4698,0.4683,0.4599,0.4617,0.4598,0.4519,0.4504,0.4453,0.4405,0.4387,0.4332,0.4289,0.4265,0.4251,0.4225,0.4246,0.4229,0.4263,0.4277,0.4289,0.4294,0.4303,0.4317,0.4162,0.4162,0.4162,0,0,0.4755,0.47,0.4697,0.464,0.4601,0.4589,0.4504,0.4495,0.4484,0.4385,0.4379,0.4338,0.4283,0.4293,0.4294,0.4262,0.4333,0.4296,0.4306,0.4305,0.4311,0.4325,0.4339,0.4166,0.4166,0.4165,0,0,0.4854,0.4811,0.4821,0.4784,0.4725,0.4672,0.4675,0.4601,0.457,0.4562,0.4488,0.4474,0.4435,0.4399,0.4376,0.4462,0.4406,0.4455,0.4527,0.4537,0.4549,0.456,0.459,0.4602,0.4461,0.4461,0.4461,0,0.4933,0.4911,0.4833,0.4828,0.4806,0.4715,0.4725,0.4692,0.4628,0.4615,0.458,0.4529,0.4486,0.4486,0.4507,0.4491,0.4491,0.4464,0.4554,0.4563,0.4572,0.46,0.4612,0.4467,0.4467,0.4466,0.4465,0,0.5011,0.4997,0.5012,0.4953,0.4932,0.4935,0.4858,0.4846,0.4796,0.4747,0.4741,0.4686,0.4647,0.4643,0.4595,0.4636,0.4618,0.457,0.4508,0.4594,0.462,0.463,0.4477,0.4474,0.4472,0.4471,0,0,0.5183,0.5081,0.5088,0.506,0.4989,0.4976,0.4975,0.4936,0.4928,0.4887,0.4884,0.4853,0.4807,0.4781,0.4728,0.4737,0.4808,0.4686,0.4684,0.4711,0.4851,0.4889,0.4902,0.477,0.4772,0.4774,0.4856,0,0.5269,0.5261,0.5191,0.5203,0.5189,0.5102,0.5101,0.5058,0.5012,0.4993,0.4942,0.4922,0.4864,0.4847,0.4852,0.4799,0.4835,0.4791,0.4767,0.4767,0.4784,0.4915,0.4955,0.5035,0.4865,0.4867,0.4868,0,0.5369,0.5334,0.5345,0.5274,0.5265,0.5265,0.5224,0.5208,0.5157,0.5123,0.5094,0.5034,0.5027,0.4969,0.4959,0.4932,0.4917,0.489,0.4891,0.4886,0.4823,0.4915,0.5059,0.5071,0.4883,0.4881,0.488,0,0.5494,0.545,0.545,0.5429,0.5346,0.5348,0.5313,0.5259,0.5241,0.5205,0.5192,0.5157,0.5138,0.5112,0.5044,0.5007,0.5042,0.4978,0.5014,0.5016,0.5025,0.5026,0.517,0.5016,0.5016,0.5016,0.5016,0,0.5598,0.5608,0.5505,0.5505,0.5514,0.5434,0.5444,0.5402,0.5355,0.5345,0.5268,0.5261,0.5172,0.5155,0.5101,0.5102,0.5094,0.5066,0.5052,0.5073,0.5077,0.5063,0.5056,0.5019,0.5018,0.5018,0.5017,0,0.5739,0.567,0.5665,0.5587,0.5567,0.5577,0.551,0.5508,0.5457,0.5446,0.5439,0.536,0.5336,0.5265,0.5224,0.5188,0.5204,0.5177,0.5221,0.5212,0.5253,0.525,0.5393,0.5408,0.5245,0.5247,0.5248,0,0.581,0.5815,0.5738,0.5726,0.5695,0.5677,0.5657,0.5579,0.5562,0.5504,0.5509,0.5478,0.545,0.5416,0.5355,0.5322,0.5294,0.5346,0.5289,0.531,0.5295,0.5296,0.5296,0.5359,0.5362,0.5363,0.5365,0,0.5944,0.5909,0.5884,0.5847,0.5826,0.5794,0.5756,0.5751,0.5663,0.5648,0.5622,0.56,0.5558,0.5529,0.5487,0.5451,0.5394,0.5383,0.539,0.5412,0.5438,0.5425,0.5256,0.538,0.5379,0.5378,0.5377,0.5376,0.6051,0.6052,0.5998,0.5973,0.5936,0.5904,0.5897,0.5846,0.5823,0.5782,0.5737,0.5717,0.5665,0.5603,0.5572,0.5555,0.5524,0.5534,0.5536,0.554,0.5551,0.544,0.5547,0.5547,0.5546,0.5546,0.5545,0,0.6181,0.6142,0.6119,0.607,0.605,0.5997,0.5953,0.5941,0.5924,0.5881,0.5854,0.5825,0.5797,0.5734,0.57,0.5699,0.5671,0.5692,0.5692,0.5685,0.558,0.5577,0.5715,0.5715,0.5715,0.5715,0.5715,0.5715,0.6246,0.6245,0.6205,0.6185,0.6145,0.6125,0.6105,0.6074,0.6039,0.601,0.5986,0.5945,0.5894,0.5856,0.5828,0.581,0.5801,0.5831,0.5805,0.5708,0.5692,0.5677,0.5674,0.583,0.583,0.5911,0.5912,0.5913]}]]